| time (UTC) | temp F | wind direction | speed knots | gust knots | rain 1hr in | rain 24hr in | rain mn in | humidity % | barometer mb |
| 20260504214813 | 51 | 128 | 0.0 | 0.9 | 0.00 | 0.08 | 0.02 | 89 | 1015.0 |
| 20260504214322 | 51 | 129 | 0.0 | 0.9 | 0.00 | 0.08 | 0.02 | 89 | 1015.0 |
| 20260504213824 | 51 | 130 | 0.0 | 0.9 | 0.00 | 0.08 | 0.02 | 89 | 1015.0 |
| 20260504213333 | 51 | 138 | 0.0 | 0.9 | 0.00 | 0.08 | 0.02 | 89 | 1015.0 |
| 20260504212814 | 51 | 138 | 0.0 | 0.9 | 0.00 | 0.08 | 0.02 | 88 | 1015.0 |
| 20260504212315 | 52 | 135 | 0.0 | 1.7 | 0.00 | 0.08 | 0.02 | 88 | 1014.9 |
| 20260504211824 | 52 | 145 | 0.0 | 1.7 | 0.00 | 0.08 | 0.02 | 88 | 1015.0 |
| 20260504211313 | 52 | 137 | 0.0 | 0.9 | 0.00 | 0.08 | 0.02 | 88 | 1015.0 |
| 20260504210814 | 52 | 148 | 0.0 | 1.7 | 0.00 | 0.08 | 0.02 | 88 | 1015.0 |
| 20260504210315 | 52 | 136 | 0.0 | 1.7 | 0.00 | 0.08 | 0.02 | 88 | 1015.0 |
| 20260504205823 | 52 | 125 | 0.0 | 1.7 | 0.00 | 0.08 | 0.02 | 88 | 1015.1 |
| 20260504205325 | 53 | 146 | 0.0 | 0.9 | 0.00 | 0.08 | 0.02 | 88 | 1015.1 |
| 20260504204834 | 53 | 155 | 0.0 | 1.7 | 0.00 | 0.08 | 0.02 | 88 | 1015.1 |
| 20260504204316 | 53 | 155 | 0.0 | 1.7 | 0.00 | 0.08 | 0.02 | 87 | 1015.1 |
| 20260504203818 | 53 | 96 | 0.0 | 1.7 | 0.00 | 0.08 | 0.02 | 87 | 1015.1 |
| 20260504203318 | 53 | 131 | 0.0 | 2.6 | 0.00 | 0.08 | 0.02 | 87 | 1015.1 |
| 20260504202826 | 53 | 113 | 0.9 | 2.6 | 0.00 | 0.08 | 0.02 | 87 | 1015.0 |
| 20260504202327 | 53 | 133 | 0.9 | 2.6 | 0.00 | 0.08 | 0.02 | 87 | 1015.1 |
| 20260504201836 | 53 | 136 | 0.0 | 1.7 | 0.00 | 0.08 | 0.02 | 86 | 1015.1 |
| 20260504201319 | 53 | 135 | 0.0 | 1.7 | 0.00 | 0.08 | 0.02 | 86 | 1014.9 |
| 20260504200821 | 54 | 132 | 0.0 | 0.9 | 0.00 | 0.08 | 0.02 | 86 | 1015.0 |
| 20260504200348 | 54 | 127 | 0.0 | 2.6 | 0.00 | 0.08 | 0.02 | 85 | 1014.8 |
| 20260504195834 | 54 | 120 | 0.0 | 2.6 | 0.00 | 0.08 | 0.02 | 85 | 1014.9 |
| 20260504195313 | 54 | 129 | 0.0 | 1.7 | 0.00 | 0.08 | 0.02 | 85 | 1014.8 |
| 20260504194834 | 54 | 139 | 0.0 | 0.9 | 0.00 | 0.08 | 0.02 | 85 | 1014.8 |
| 20260504194322 | 55 | 143 | 0.0 | 0.9 | 0.00 | 0.08 | 0.02 | 84 | 1014.7 |
| 20260504193847 | 55 | 143 | 0.0 | 0.9 | 0.00 | 0.08 | 0.02 | 84 | 1014.7 |
| 20260504193313 | 55 | 108 | 0.0 | 1.7 | 0.00 | 0.08 | 0.02 | 84 | 1014.6 |
| 20260504192812 | 55 | 141 | 0.9 | 1.7 | 0.00 | 0.08 | 0.02 | 84 | 1014.5 |
| 20260504192314 | 55 | 103 | 0.0 | 1.7 | 0.00 | 0.08 | 0.02 | 84 | 1014.6 |
| 20260504191823 | 55 | 103 | 0.0 | 2.6 | 0.00 | 0.08 | 0.02 | 83 | 1014.6 |
| 20260504191332 | 56 | 137 | 0.0 | 2.6 | 0.00 | 0.08 | 0.02 | 83 | 1014.6 |
| 20260504190843 | 56 | 129 | 0.0 | 1.7 | 0.00 | 0.08 | 0.02 | 83 | 1014.5 |
| 20260504185812 | 56 | 125 | 1.7 | 3.5 | 0.00 | 0.08 | 0.02 | 83 | 1014.5 |
| 20260504185312 | 56 | 134 | 0.0 | 1.7 | 0.00 | 0.08 | 0.02 | 83 | 1014.4 |
| 20260504184814 | 56 | 133 | 0.0 | 2.6 | 0.00 | 0.08 | 0.02 | 82 | 1014.5 |
| 20260504184317 | 56 | 145 | 0.0 | 2.6 | 0.00 | 0.08 | 0.02 | 82 | 1014.4 |
| 20260504183819 | 56 | 107 | 0.9 | 2.6 | 0.00 | 0.08 | 0.02 | 81 | 1014.2 |
| 20260504183329 | 57 | 113 | 0.9 | 2.6 | 0.00 | 0.08 | 0.02 | 81 | 1014.1 |
| 20260504182838 | 57 | 134 | 0.9 | 2.6 | 0.00 | 0.08 | 0.02 | 81 | 1014.2 |